Temp
1 2 1 2 2 2 2 3 2 3 2 2 2 2 2 2 2 1 1 0 0 -0 -1 -1 -0 0 1 1 1 1 1 1 1 1 1 1 1 1 1 1 2 2 2 2
1 1 1 2 1 1 1 2 1 1 1 1 1 1 1 1 0 0 -0 -1 -1 -1 -1 -1 -0 0 1 1 1 1 1 1 1 1 1 1 1 1 1 1 1 1 1 2
-0 1 0 1 3 3 2 2 2 -0 1 -1 -0 1 -0 -1 -1 -1 -1 -1 -2 -2 -2 -1 -0 0 0 -0 -0 -0 0 0 0 0 0 0 0 0 0 0 1 1 1 1
-1 -2 0 3 3 3 3 3 2 2 1 -0 -1 -2 -2 -2 -2 -2 -2 -3 -3 -2 -2 -1 -1 -0 -0 -1 -1 -1 -1 -1 -1 -1 -1 -1 -1 -1 -0 -0 -0 -0 -0 0
-2 -0 1 2 3 2 2 3 3 2 1 1 0 -0 -1 -3 -3 -3 -3 -3 -3 -2 -2 -1 -1 -1 -1 -2 -2 -2 -2 -2 -2 -2 -2 -2 -1 -1 -1 -1 -1 -1 -1 -1
-4 -2 0 1 1 1 1 1 1 1 -0 -0 -0 -1 -3 -2 -3 -3 -3 -3 -2 -2 -2 -2 -2 -3 -3 -3 -4 -4 -3 -3 -3 -3 -3 -2 -2 -2 -2 -2 -1 -1 -1 -1
-3 -3 -2 0 0 -0 -1 -0 0 0 -0 -1 -1 -2 -3 -3 -3 -3 -3 -3 -3 -2 -2 -3 -3 -4 -4 -4 -4 -4 -4 -4 -4 -4 -4 -3 -3 -3 -3 -3 -2 -2 -2 -2
-4 -3 -3 -0 -1 -1 -0 -1 -1 -1 -1 -1 -2 -3 -3 -4 -4 -4 -4 -4 -4 -4 -4 -4 -4 -4 -4 -5 -5 -5 -5 -5 -5 -5 -5 -4 -4 -4 -4 -4 -4 -3 -3 -3
-1 -2 -0 -1 -1 -1 -2 -2 -2 -2 -2 -3 -3 -4 -4 -4 -4 -4 -4 -4 -5 -5 -5 -6 -6 -6 -6 -6 -6 -6 -5 -5 -5 -5 -5 -5 -5 -5 -5 -5 -5 -5 -4 -4
-2 -1 -1 -2 -2 -2 -3 -3 -3 -3 -4 -4 -4 -4 -4 -5 -5 -5 -5 -5 -5 -5 -6 -6 -6 -7 -7 -7 -6 -6 -6 -6 -6 -6 -6 -6 -6 -6 -5 -5 -5 -5 -5 -5
-2 -2 -2 -2 -3 -3 -3 -4 -4 -4 -4 -5 -5 -5 -5 -5 -6 -6 -6 -6 -6 -7 -7 -7 -7 -7 -7 -7 -7 -7 -7 -7 -6 -6 -6 -6 -6 -6 -6 -6 -6 -6 -6 -7
-3 -4 -3 -4 -4 -4 -5 -5 -5 -5 -5 -6 -6 -6 -6 -6 -7 -7 -7 -7 -7 -8 -8 -8 -8 -8 -8 -8 -8 -8 -7 -7 -7 -6 -6 -6 -6 -6 -6 -6 -7 -8 -8 -8
-2 -3 -4 -4 -4 -4 -5 -6 -6 -6 -7 -7 -7 -7 -8 -8 -8 -8 -8 -8 -8 -8 -9 -9 -9 -9 -9 -8 -8 -8 -8 -8 -8 -7 -7 -7 -7 -7 -6 -6 -7 -8 -8 -9
-4 -5 -5 -5 -5 -6 -6 -6 -6 -7 -7 -7 -8 -8 -8 -8 -9 -9 -9 -9 -9 -9 -9 -9 -9 -9 -9 -9 -9 -9 -9 -9 -9 -8 -8 -9 -9 -9 -9 -9 -8 -8 -9 -9
-5 -5 -5 -6 -6 -6 -7 -8 -8 -8 -8 -8 -8 -9 -9 -9 -10 -10 -10 -10 -10 -10 -10 -10 -9 -9 -10 -10 -9 -10 -10 -10 -10 -10 -10 -11 -11 -11 -11 -11 -11 -11 -11 -11
-6 -6 -6 -6 -7 -7 -8 -8 -8 -8 -9 -9 -10 -10 -10 -10 -11 -11 -11 -11 -10 -10 -10 -10 -10 -11 -11 -11 -11 -11 -11 -11 -11 -11 -12 -12 -12 -12 -12 -12 -12 -12 -12 -12
-8 -8 -8 -8 -9 -9 -9 -9 -9 -10 -10 -10 -10 -11 -11 -11 -11 -11 -10 -10 -10 -10 -11 -11 -11 -11 -12 -12 -12 -12 -12 -12 -13 -13 -13 -13 -13 -13 -13 -13 -13 -13 -13 -13
-9 -9 -10 -10 -10 -10 -10 -10 -11 -11 -11 -11 -11 -11 -11 -11 -10 -11 -11 -11 -11 -11 -12 -12 -12 -12 -13 -13 -13 -13 -13 -14 -14 -14 -14 -14 -14 -13 -13 -13 -13 -13 -13 -13
-9 -10 -11 -11 -11 -11 -11 -11 -11 -11 -11 -11 -11 -11 -11 -11 -11 -11 -11 -11 -11 -12 -12 -13 -13 -13 -13 -14 -14 -14 -14 -14 -14 -14 -14 -14 -14 -14 -14 -14 -14 -14 -13 -13
-10 -11 -11 -11 -11 -12 -12 -11 -11 -11 -11 -11 -11 -11 -11 -11 -11 -12 -12 -12 -12 -13 -13 -13 -14 -14 -14 -14 -14 -14 -14 -14 -14 -14 -14 -14 -14 -14 -14 -14 -14 -14 -14 -14
-11 -12 -12 -11 -11 -11 -11 -11 -11 -11 -11 -11 -11 -11 -11 -11 -12 -12 -12 -12 -12 -13 -13 -14 -14 -14 -15 -15 -15 -15 -15 -15 -15 -15 -14 -14 -14 -14 -14 -14 -14 -14 -14 -14
-11 -11 -11 -11 -11 -11 -11 -11 -11 -11 -11 -11 -11 -11 -12 -12 -12 -12 -12 -12 -13 -13 -14 -14 -14 -15 -15 -15 -15 -15 -15 -15 -15 -15 -14 -14 -14 -14 -14 -14 -14 -14 -14 -14
-11 -11 -11 -11 -11 -11 -11 -11 -11 -11 -11 -12 -12 -12 -13 -13 -13 -13 -13 -13 -14 -14 -14 -14 -15 -15 -15 -15 -15 -15 -15 -15 -15 -15 -15 -15 -14 -14 -14 -14 -14 -14 -14 -14
-11 -11 -11 -11 -11 -11 -11 -12 -12 -12 -12 -13 -13 -13 -13 -13 -13 -13 -14 -14 -14 -15 -15 -15 -15 -15 -15 -15 -15 -15 -15 -15 -15 -15 -15 -15 -15 -14 -14 -14 -14 -14 -14 -14
-11 -11 -11 -11 -11 -12 -12 -12 -13 -13 -13 -13 -13 -13 -14 -14 -15 -14 -15 -15 -15 -15 -15 -15 -15 -15 -15 -15 -15 -15 -15 -15 -15 -15 -15 -15 -15 -15 -14 -14 -14 -14 -14 -14
-12 -12 -12 -12 -12 -12 -13 -13 -13 -13 -13 -14 -14 -14 -15 -15 -15 -15 -15 -15 -15 -15 -15 -15 -15 -15 -15 -16 -16 -16 -16 -16 -16 -16 -15 -15 -15 -15 -14 -14 -14 -15 -15 -14
-12 -12 -12 -12 -13 -13 -14 -14 -14 -14 -14 -15 -15 -15 -15 -15 -15 -15 -15 -16 -16 -15 -15 -15 -15 -16 -16 -16 -16 -16 -16 -16 -16 -16 -16 -16 -15 -15 -15 -14 -14 -15 -15 -15
Height
3094 3094 3095 3096 3095 3094 3092 3095 3095 3094 3092 3094 3093 3094 3094 3095 3094 3095 3095 3095 3094 3093 3092 3092 3091 3089 3087 3084 3082 3079 3076 3074 3071 3068 3066 3064 3062 3059 3057 3055 3053 3053 3051 3050
3092 3091 3090 3088 3089 3088 3088 3088 3087 3088 3087 3088 3089 3089 3089 3089 3089 3089 3089 3090 3089 3089 3089 3087 3086 3084 3082 3079 3076 3073 3070 3067 3065 3062 3060 3057 3055 3052 3050 3048 3046 3045 3044 3042
3088 3087 3086 3083 3078 3079 3079 3079 3081 3080 3084 3083 3082 3082 3084 3083 3084 3084 3084 3084 3084 3084 3084 3083 3081 3079 3076 3073 3070 3067 3064 3061 3059 3056 3053 3050 3047 3044 3042 3041 3039 3037 3036 3034
3088 3086 3083 3073 3072 3072 3072 3073 3074 3074 3074 3074 3076 3077 3076 3077 3079 3079 3079 3079 3079 3079 3079 3078 3076 3072 3069 3067 3064 3061 3058 3055 3052 3049 3046 3043 3040 3038 3035 3033 3032 3030 3028 3026
3087 3083 3076 3072 3068 3069 3069 3068 3068 3068 3069 3070 3070 3071 3071 3072 3073 3074 3075 3076 3075 3075 3073 3071 3068 3066 3063 3060 3057 3055 3052 3050 3047 3044 3041 3038 3035 3032 3029 3027 3024 3022 3020 3018
3081 3081 3075 3068 3067 3067 3067 3066 3064 3063 3064 3064 3064 3065 3066 3067 3069 3070 3071 3071 3070 3068 3067 3065 3063 3060 3057 3054 3052 3050 3047 3044 3041 3038 3035 3032 3029 3026 3023 3019 3017 3014 3012 3010
3075 3075 3068 3064 3065 3065 3068 3068 3062 3062 3062 3062 3064 3065 3065 3066 3067 3068 3067 3066 3064 3063 3060 3058 3056 3054 3052 3050 3047 3044 3041 3038 3035 3032 3029 3025 3022 3018 3016 3013 3010 3007 3005 3002
3071 3071 3064 3060 3061 3064 3063 3061 3060 3060 3060 3060 3059 3060 3061 3062 3062 3062 3061 3059 3057 3054 3052 3050 3049 3048 3046 3044 3042 3039 3036 3032 3029 3025 3022 3019 3016 3012 3009 3006 3003 3000 2997 2994
3065 3061 3058 3057 3057 3058 3058 3058 3058 3057 3057 3057 3056 3056 3056 3056 3055 3054 3052 3051 3050 3048 3046 3044 3043 3041 3039 3037 3034 3031 3028 3025 3022 3018 3014 3011 3008 3005 3002 2999 2996 2993 2989 2986
3057 3056 3055 3055 3054 3052 3052 3052 3052 3052 3053 3052 3051 3051 3050 3048 3046 3046 3045 3044 3043 3041 3039 3037 3036 3034 3031 3029 3026 3023 3020 3017 3013 3010 3007 3004 3000 2997 2993 2990 2987 2984 2981 2978
3049 3049 3049 3048 3047 3046 3046 3045 3046 3046 3046 3046 3045 3043 3042 3041 3040 3038 3037 3037 3035 3034 3033 3031 3029 3026 3023 3020 3017 3015 3011 3007 3003 3000 2997 2995 2992 2988 2985 2982 2977 2974 2972 2969
3042 3041 3039 3038 3039 3039 3038 3038 3038 3039 3039 3039 3038 3037 3035 3034 3033 3031 3030 3028 3027 3026 3024 3022 3020 3018 3014 3011 3008 3005 3003 3000 2996 2991 2988 2984 2981 2978 2976 2971 2968 2964 2961 2958
3035 3034 3032 3031 3031 3030 3030 3031 3031 3031 3030 3030 3030 3029 3028 3027 3025 3023 3023 3021 3020 3018 3015 3013 3011 3010 3006 3002 2999 2995 2991 2989 2986 2982 2979 2976 2971 2967 2962 2962 2958 2954 2952 2948
3024 3024 3023 3023 3022 3022 3022 3022 3022 3023 3023 3022 3021 3020 3019 3019 3018 3017 3015 3014 3011 3009 3007 3005 3002 3000 2996 2992 2989 2984 2981 2978 2974 2970 2966 2964 2960 2956 2952 2947 2943 2943 2942 2938
3015 3014 3013 3013 3013 3012 3013 3014 3014 3015 3015 3014 3013 3013 3012 3012 3010 3009 3008 3006 3003 3001 2999 2996 2993 2990 2985 2981 2978 2974 2971 2968 2964 2960 2956 2953 2949 2945 2941 2937 2933 2929 2927 2927
3006 3006 3006 3005 3005 3005 3005 3006 3007 3007 3007 3006 3006 3006 3006 3005 3004 3003 3001 2999 2995 2992 2990 2986 2982 2979 2975 2971 2967 2964 2961 2958 2954 2950 2947 2943 2940 2936 2931 2927 2923 2920 2916 2913
2998 2998 2998 2998 2999 2999 2999 3000 3000 3001 3001 3001 3000 2999 2999 2999 2998 2996 2994 2990 2986 2982 2979 2976 2971 2968 2964 2961 2957 2953 2950 2947 2944 2941 2938 2934 2930 2926 2922 2917 2913 2909 2906 2903
2990 2989 2990 2991 2992 2993 2993 2994 2995 2996 2997 2996 2995 2996 2994 2992 2990 2987 2984 2979 2976 2972 2969 2966 2961 2956 2953 2951 2947 2943 2939 2937 2934 2931 2928 2925 2921 2916 2912 2908 2904 2900 2896 2892
2983 2983 2984 2986 2987 2988 2989 2989 2990 2990 2991 2990 2990 2989 2987 2984 2981 2978 2974 2970 2966 2961 2960 2955 2951 2947 2944 2941 2937 2933 2930 2927 2924 2921 2917 2914 2910 2906 2902 2898 2894 2890 2885 2881
2978 2979 2981 2982 2983 2984 2985 2986 2986 2986 2985 2984 2982 2981 2978 2976 2972 2968 2964 2959 2956 2952 2947 2944 2941 2938 2935 2932 2928 2924 2921 2918 2914 2910 2906 2902 2899 2895 2891 2888 2883 2879 2874 2870
2976 2978 2979 2979 2981 2981 2982 2982 2980 2979 2978 2976 2973 2970 2968 2965 2962 2958 2954 2949 2949 2943 2937 2934 2931 2928 2924 2921 2918 2914 2911 2908 2904 2900 2896 2893 2889 2885 2881 2877 2872 2868 2863 2858
2974 2975 2975 2975 2976 2976 2975 2974 2973 2971 2968 2967 2964 2961 2958 2955 2951 2947 2944 2939 2936 2932 2927 2923 2920 2918 2914 2911 2907 2903 2900 2896 2892 2889 2885 2882 2878 2874 2870 2866 2862 2857 2852 2848
2972 2972 2971 2970 2970 2970 2969 2967 2965 2962 2959 2956 2952 2950 2946 2943 2939 2934 2930 2930 2922 2919 2916 2913 2910 2907 2903 2899 2894 2890 2887 2883 2880 2877 2874 2871 2867 2864 2860 2856 2852 2847 2842 2837
2966 2966 2965 2964 2962 2960 2959 2957 2954 2950 2947 2944 2941 2938 2934 2929 2925 2923 2916 2913 2911 2908 2904 2902 2899 2895 2891 2886 2883 2879 2875 2872 2869 2865 2862 2860 2857 2854 2850 2846 2842 2836 2831 2826
2959 2958 2957 2954 2951 2948 2946 2944 2940 2938 2935 2931 2929 2926 2922 2917 2911 2909 2905 2901 2898 2895 2891 2889 2886 2883 2879 2875 2871 2867 2864 2861 2858 2854 2851 2849 2846 2843 2840 2836 2831 2826 2821 2817
2949 2948 2946 2944 2941 2937 2934 2931 2927 2924 2921 2918 2915 2912 2908 2904 2899 2895 2893 2890 2886 2883 2880 2877 2875 2871 2866 2862 2859 2855 2852 2850 2847 2844 2841 2839 2836 2833 2830 2826 2822 2817 2812 2807
2938 2936 2933 2930 2928 2924 2921 2918 2914 2912 2910 2905 2900 2899 2895 2892 2888 2884 2880 2877 2874 2871 2869 2866 2862 2858 2853 2850 2847 2844 2841 2838 2836 2833 2831 2829 2827 2824 2821 2817 2812 2808 2803 2799
Wind_Speed
14 15 15 16 15 15 24 25 16 13 18 16 23 23 24 24 24 23 26 25 24 20 17 16 18 20 23 24 26 28 28 27 28 29 28 27 26 26 26 26 27 29 28 28
13 15 17 21 22 25 27 28 31 29 29 25 24 23 26 26 27 27 26 25 21 19 18 18 20 23 25 26 27 27 28 27 28 28 29 29 27 26 26 27 27 28 29 29
6 10 11 17 23 27 31 33 29 30 25 21 25 27 26 31 30 27 21 23 20 20 21 22 23 26 27 27 27 26 26 26 26 26 27 27 27 27 26 26 27 28 28 28
5 6 5 10 11 12 15 18 21 20 22 22 20 21 27 27 25 24 21 19 20 21 21 23 26 28 27 26 25 24 24 25 25 25 25 25 26 27 26 27 27 28 28 29
5 8 17 20 20 19 17 20 17 19 18 17 17 20 19 17 19 19 18 18 19 21 24 25 24 24 24 23 23 23 23 24 25 25 25 26 26 26 27 27 27 27 28 29
6 5 5 8 7 6 7 15 10 11 13 15 13 12 9 10 13 14 16 19 23 24 25 25 23 22 21 22 22 24 24 25 25 25 26 26 27 26 26 27 27 28 28 29
16 8 10 19 16 13 4 6 6 6 7 9 9 11 10 10 13 17 20 23 26 28 28 26 24 22 22 22 23 25 27 28 28 28 27 27 26 28 28 27 28 28 27 28
12 10 11 11 9 9 9 10 9 9 9 10 11 11 12 15 19 22 24 25 25 24 23 23 23 23 24 26 27 29 29 30 30 30 30 30 30 29 28 28 27 27 27 27
13 8 9 8 11 13 15 16 17 16 14 14 15 16 19 22 25 27 25 24 23 24 24 24 25 27 27 29 30 31 30 31 31 31 32 32 31 31 31 31 31 30 29 28
22 21 23 22 19 16 17 20 18 18 18 20 22 25 26 27 26 24 24 23 23 24 26 27 28 30 31 32 32 32 33 34 35 34 33 32 33 34 34 34 34 34 33 31
27 26 27 27 26 26 24 23 23 23 23 25 26 27 28 27 25 25 25 26 27 27 28 29 31 33 34 34 35 36 38 39 38 36 36 35 36 37 37 38 39 39 37 37
31 25 29 28 26 27 27 25 24 25 27 28 27 28 28 26 25 26 28 28 27 28 30 32 34 34 36 37 38 40 39 37 36 37 38 40 41 41 39 39 38 39 40 41
25 27 27 27 26 25 24 23 25 26 25 25 28 28 26 26 27 26 26 27 30 32 33 34 34 34 38 41 42 41 41 40 39 39 41 43 43 44 45 40 39 38 37 38
31 32 31 29 29 27 27 27 25 25 27 29 28 27 27 25 25 26 28 31 31 31 31 34 37 39 42 43 43 42 42 41 42 43 43 43 42 42 42 42 42 40 34 35
25 27 29 28 28 27 24 23 25 27 28 26 24 23 23 25 25 24 25 27 31 33 35 39 41 41 41 42 42 42 43 42 42 43 42 42 41 41 40 40 40 40 39 34
25 24 24 26 26 23 22 23 25 25 23 21 22 23 23 22 23 24 27 32 37 39 41 42 41 39 39 40 41 42 42 41 41 41 40 40 39 40 40 39 39 39 38 37
27 25 24 23 21 20 20 20 19 20 20 20 20 20 20 24 27 32 36 39 41 41 41 39 39 38 38 38 38 39 39 38 37 37 37 38 38 39 39 40 40 40 40 39
26 24 22 21 19 18 19 20 19 16 15 16 19 23 26 27 29 29 31 34 36 37 36 35 38 39 37 35 35 36 36 36 36 36 36 38 39 40 39 39 39 39 39 40
21 17 15 16 17 13 10 10 13 15 17 19 19 21 25 28 30 33 35 37 37 37 34 34 36 37 36 35 34 34 34 35 36 38 39 39 40 39 40 40 40 40 40 41
14 14 12 11 10 11 12 14 13 14 17 21 24 28 30 32 34 36 38 40 39 37 37 37 36 36 35 34 33 34 34 35 36 37 38 39 39 40 39 38 39 39 40 42
12 11 10 10 10 10 11 14 18 22 25 28 31 34 36 38 39 39 41 42 39 38 39 38 35 34 33 33 35 37 38 39 40 40 40 39 39 38 38 38 39 40 41 41
8 7 8 11 13 16 19 22 24 27 30 33 36 39 41 41 40 41 40 42 40 39 39 39 37 36 37 39 41 42 42 41 41 40 40 40 39 38 37 38 40 40 41 41
9 12 15 17 20 22 23 26 30 33 36 39 41 42 42 42 42 43 44 40 43 42 41 40 39 41 43 45 44 42 42 41 41 41 40 39 38 37 37 39 39 41 40 41
17 20 22 24 27 30 32 33 35 39 41 42 43 42 43 44 44 44 45 44 42 40 40 42 43 44 45 42 41 40 38 37 38 38 37 37 36 36 37 38 40 39 40 38
24 27 29 32 35 38 40 42 43 43 42 43 43 42 43 44 46 46 43 42 41 41 44 44 43 39 40 41 41 40 39 38 37 36 35 35 35 35 36 37 38 39 38 35
34 36 37 39 42 44 44 41 41 42 42 42 42 42 44 46 47 47 45 42 41 42 40 36 37 39 41 42 41 40 39 38 36 35 33 33 32 32 33 36 37 38 35 33
42 42 43 43 41 37 36 38 40 41 40 42 45 45 46 46 44 44 42 40 39 38 37 38 38 39 39 36 34 34 34 34 35 34 31 30 29 31 33 35 36 36 32 31
Wind_Direction
251 260 265 262 258 248 241 247 241 256 258 260 259 254 260 258 251 255 271 279 288 288 282 283 290 298 304 306 305 304 303 304 302 300 301 302 299 294 290 288 285 282 281 282
274 265 264 265 258 255 257 253 249 252 258 256 260 258 258 256 255 263 271 280 279 275 273 278 289 297 301 303 304 303 301 301 299 297 296 297 299 299 296 293 289 284 283 280
240 266 276 278 262 255 254 256 258 252 270 269 263 264 259 259 262 266 267 275 269 268 272 280 292 298 301 303 304 304 303 302 301 299 297 296 296 296 295 293 291 289 285 284
288 291 245 260 268 264 263 257 263 264 263 263 260 257 253 259 258 262 261 257 259 266 274 288 296 301 303 303 304 306 308 308 307 306 305 303 301 299 297 294 291 289 288 285
255 248 282 279 270 262 266 269 270 265 259 260 263 267 264 257 249 252 249 256 266 277 286 291 294 296 298 301 305 308 309 309 308 308 307 306 303 300 299 297 294 292 291 289
225 243 256 263 274 261 262 284 280 253 250 256 251 245 251 235 237 245 255 268 278 284 288 290 291 294 299 302 303 304 306 308 308 308 308 306 305 303 301 300 297 295 292 290
224 243 266 263 267 271 254 270 291 273 251 242 231 221 239 249 258 268 275 280 285 288 290 291 292 295 297 300 303 305 307 308 308 308 307 306 306 307 307 305 303 300 298 295
207 223 253 256 253 232 254 269 282 273 258 240 234 231 246 262 274 281 285 287 288 289 289 289 290 292 294 298 302 305 307 308 307 307 306 305 304 304 304 304 305 304 303 301
225 240 254 263 278 284 280 278 280 272 259 248 247 259 272 278 284 286 285 287 289 289 289 289 290 291 294 297 301 304 305 307 307 306 304 304 303 302 302 303 304 304 304 304
262 265 267 275 278 274 274 278 272 262 260 258 266 276 280 285 286 284 283 283 283 282 282 282 285 289 294 297 299 300 301 303 303 300 298 299 300 301 301 301 300 301 302 302
271 273 276 275 276 274 273 268 266 264 264 268 273 275 282 285 282 281 281 283 283 281 281 282 285 288 291 293 295 298 301 303 302 302 303 302 302 302 301 302 301 300 299 300
274 274 276 274 274 273 272 267 262 261 268 269 271 275 280 280 280 282 282 281 280 282 283 284 287 289 290 293 296 299 300 300 299 300 302 303 303 302 301 301 298 297 296 296
276 274 272 271 272 273 269 266 267 266 260 264 273 276 273 276 279 278 277 279 282 284 285 286 287 290 294 296 299 301 302 302 302 302 303 303 303 302 300 297 297 295 291 287
277 274 272 272 272 269 268 270 264 257 266 274 274 272 272 276 276 278 280 283 284 285 288 291 294 297 298 299 300 301 301 302 303 304 305 305 305 305 304 304 302 300 296 293
270 267 269 269 270 270 267 258 257 268 271 273 272 272 276 278 279 279 282 284 286 290 295 297 299 301 300 300 300 300 300 301 302 303 304 305 306 307 307 307 307 307 307 304
275 265 261 264 264 263 261 265 267 265 264 266 271 273 273 276 280 286 290 294 296 298 299 300 299 300 297 296 297 298 298 300 301 301 303 304 306 306 307 307 306 306 306 307
270 264 263 262 263 263 265 264 261 265 270 271 272 277 285 290 294 296 297 298 298 299 299 299 298 296 295 297 297 297 297 297 298 298 299 301 304 305 306 304 305 306 306 308
263 264 262 261 260 257 258 262 266 264 268 276 284 291 295 299 302 304 305 305 304 303 303 302 297 297 298 298 296 295 295 295 296 296 297 299 301 303 306 305 304 303 304 305
259 254 245 243 250 249 245 251 260 272 284 290 295 301 306 309 309 309 309 307 308 310 310 299 297 297 298 298 297 296 296 296 296 296 298 298 299 301 302 303 302 300 301 304
234 232 227 219 228 240 253 268 279 287 291 293 297 301 304 307 308 308 308 307 309 311 307 303 301 300 298 298 298 297 297 298 300 302 303 302 301 302 301 302 304 302 300 302
210 212 224 237 250 266 277 286 292 294 294 295 299 302 304 306 306 305 304 304 308 302 301 302 301 302 300 297 295 295 296 297 298 300 303 303 302 302 303 303 303 304 304 305
219 224 249 268 280 287 290 292 293 293 293 295 296 297 299 300 300 299 300 299 298 296 294 294 296 298 299 299 298 298 296 295 295 296 296 298 299 301 304 304 305 305 305 305
269 275 278 282 282 282 287 291 291 292 292 292 293 295 297 299 298 298 298 299 293 291 290 291 294 296 299 300 300 300 299 296 294 292 293 294 294 300 301 305 306 306 304 305
277 278 280 282 283 285 288 291 292 292 294 295 295 297 297 295 293 294 294 294 292 292 289 290 292 295 297 297 298 298 299 297 299 295 292 295 292 296 299 303 307 306 306 304
292 294 295 294 293 294 296 297 296 296 294 291 293 293 292 292 293 296 295 294 294 293 291 292 292 293 294 295 294 294 292 291 294 294 291 292 291 295 299 303 308 308 306 303
290 292 291 291 291 292 294 295 293 291 292 292 292 292 291 291 292 294 295 293 290 292 293 292 292 294 294 293 292 291 291 291 291 293 291 291 293 295 300 305 308 308 305 304
288 290 291 291 293 295 293 290 289 291 292 293 291 290 290 292 293 296 297 294 290 290 291 294 295 296 297 298 297 295 293 291 288 289 288 288 290 297 303 307 308 307 305 306